{"data":{"norad_id":68071,"intl_designator":"2026-042C","name":"STARLINK-36970","alt_names":[],"object_type":"PAYLOAD","status":"ACTIVE","operator":null,"country":"US","launch_date":"2026-03-04","launch_site_code":"AFETR","launch_vehicle":null,"mission":null,"orbit_class":"UNKNOWN","rcs_meters":null,"size_class":null,"mass_kg":null,"dimensions":null,"purposes":["comms"],"wikipedia_slug":null,"has_3d_model":false,"image_url":null,"decayed_at":null,"tle_current":{"epoch":"2026-09-19T15:01:02.326368Z","epoch_age_seconds":130990,"freshness":"FRESH","line1":"1 68071U 26042C   26262.62572137  .00037966  00000+0  11271-2 0  9991","line2":"2 68071  53.1603 353.9400 0000948  76.6831 283.4277 15.34457840 32052","mean_motion":15.3445784,"eccentricity":9.48e-5,"inclination_deg":53.1603,"raan_deg":353.94,"arg_perigee_deg":76.6831,"mean_anomaly_deg":283.4277,"bstar":0.0011271,"rev_number":3205,"period_min":93.844220575001,"perigee_km":461.88283758002,"apogee_km":463.17982829594,"semimajor_km":6840.668332938,"source":"CELESTRAK","updated_at":"2026-09-20T09:00:43.777205Z"}}}